Stations météo

Publicité
Chassiron, France (7314): Température de l'air & dewpoint: 14.09.2019 05:00:00 - 20.09.2019 05:00:00 (CEST)Chassiron, France (7314): Vitesse du vent & gusts: 14.09.2019 05:00:00 - 20.09.2019 05:00:00 (CEST)Chassiron, France (7314): Direction du vent: 14.09.2019 05:00:00 - 20.09.2019 05:00:00 (CEST)Chassiron, France (7314): reduced air pressure: 14.09.2019 05:00:00 - 20.09.2019 05:00:00 (CEST)Chassiron, France (7314): visibility: 14.09.2019 05:00:00 - 20.09.2019 05:00:00 (CEST)Chassiron, France (7314): Quantités de précipitations: 14.09.2019 05:00:00 - 20.09.2019 05:00:00 (CEST)
Date & Time tt [°C] td [°C] ff [km/h] ff [knt] fx [km/h] fx [knt] dd ppp [hPa] vv [km] rr [mm]
20.09.2019 05:00:00 15,5 6,2 21 11 45 25 ENE 1018,6 - 0,0
20.09.2019 04:00:00 16,0 7,0 21 11 44 24 ENE 1019,1 18 0,0
20.09.2019 03:00:00 16,4 7,1 19 10 37 20 ENE 1019,6 - 0,0
20.09.2019 02:00:00 17,0 7,1 19 10 38 20 ENE 1019,9 - 0,0
20.09.2019 01:00:00 17,7 8,3 22 12 42 23 ENE 1020,2 18 0,0
20.09.2019 00:00:00 18,0 8,3 28 15 42 23 NE 1020,6 - 0,0
19.09.2019 23:00:00 18,6 9,1 26 14 40 22 NE 1020,9 17 0,0
19.09.2019 22:00:00 19,3 9,2 28 15 44 24 NE 1020,8 - 0,0
19.09.2019 21:00:00 19,8 9,7 27 15 41 22 NE 1020,4 - 0,0
19.09.2019 20:00:00 20,4 9,6 23 13 41 22 ENE 1019,8 - 0,0
19.09.2019 19:00:00 20,8 9,4 21 11 43 23 ENE 1019,7 - 0,0
19.09.2019 18:00:00 21,4 8,6 25 14 40 22 ENE 1019,6 - 0,0
19.09.2019 17:00:00 21,8 9,3 26 14 42 23 ENE 1019,9 20 0,0
19.09.2019 16:00:00 22,0 8,8 24 13 43 23 ENE 1020,4 - 0,0
19.09.2019 15:00:00 21,4 7,6 25 14 45 24 ENE 1020,8 - 0,0
19.09.2019 14:00:00 20,7 9,3 24 13 47 25 ENE 1021,5 - 0,0
19.09.2019 13:00:00 19,6 9,5 28 15 44 24 ENE 1021,9 20 0,0
19.09.2019 12:00:00 17,9 8,5 29 16 46 25 ENE 1022,3 - 0,0
19.09.2019 11:00:00 16,0 7,5 31 17 49 27 NE 1022,7 16 0,0
19.09.2019 10:00:00 14,8 7,1 33 18 55 30 NE 1022,5 - 0,0
19.09.2019 09:00:00 14,2 6,8 39 21 55 30 NE 1021,9 - 0,0
19.09.2019 08:00:00 14,4 7,0 35 19 56 31 NE 1021,5 16 0,0
19.09.2019 07:00:00 15,0 7,0 37 20 61 33 NE 1020,9 - 0,0
19.09.2019 06:00:00 15,3 7,8 35 19 61 33 NE 1020,9 - 0,0
19.09.2019 05:00:00 15,8 7,8 37 20 57 31 NE 1021,0 - 0,0
19.09.2019 04:00:00 16,0 7,7 37 20 57 31 NE 1021,2 18 0,0
19.09.2019 03:00:00 16,5 7,7 36 20 59 32 NE 1021,3 - 0,0
19.09.2019 02:00:00 16,9 6,7 35 19 58 31 NE 1021,5 - 0,0
19.09.2019 01:00:00 17,5 7,2 35 19 54 29 NE 1021,3 18 0,0
19.09.2019 00:00:00 18,1 7,2 36 19 54 29 NE 1021,1 - 0,0
18.09.2019 23:00:00 18,6 8,0 32 18 47 25 NE 1021,1 18 0,0
18.09.2019 22:00:00 19,3 7,7 31 17 49 26 NE 1020,8 - 0,0
18.09.2019 21:00:00 19,8 9,4 27 15 53 29 NE 1020,2 - 0,0
18.09.2019 20:00:00 20,8 9,4 32 18 49 26 NE 1019,3 - 0,0
18.09.2019 19:00:00 21,3 10,1 31 17 47 25 NE 1018,9 - 0,0
18.09.2019 18:00:00 21,5 10,3 27 15 41 22 NE 1018,7 - 0,0
18.09.2019 17:00:00 21,7 11,1 26 14 46 25 NE 1018,6 - 0,0
18.09.2019 16:00:00 22,2 12,2 26 14 45 24 NE 1018,9 - 0,0
18.09.2019 15:00:00 22,2 12,2 26 14 44 24 NE 1019,0 - 0,0
18.09.2019 14:00:00 21,4 12,3 28 15 45 24 NE 1019,9 - 0,0
18.09.2019 13:00:00 20,4 12,1 29 16 46 25 NE 1019,5 18 0,0
18.09.2019 12:00:00 19,3 12,3 29 16 50 27 NE 1019,5 - 0,0
18.09.2019 11:00:00 17,4 11,0 35 19 53 29 NE 1019,3 - 0,0
18.09.2019 10:00:00 16,3 10,6 35 19 57 31 NE 1019,1 - 0,0
18.09.2019 09:00:00 15,6 10,8 37 20 64 35 NE 1018,9 - 0,0
18.09.2019 08:00:00 16,2 10,7 39 21 58 31 NE 1019,2 16 0,0
18.09.2019 07:00:00 16,8 11,1 35 19 54 29 NE 1018,6 - 0,0
18.09.2019 06:00:00 17,3 12,0 32 17 51 27 NE 1018,4 - 0,0
18.09.2019 05:00:00 17,8 11,8 31 17 48 26 NE 1018,3 - 0,0
18.09.2019 04:00:00 18,3 12,5 29 16 42 23 NE 1018,3 16 0,0
18.09.2019 03:00:00 18,8 13,6 29 16 46 25 NE 1018,5 - 0,0
18.09.2019 02:00:00 19,1 14,1 23 13 38 20 NE 1018,7 - 0,0
18.09.2019 01:00:00 19,5 14,3 22 12 35 19 NE 1019,1 18 0,0
18.09.2019 00:00:00 19,8 15,0 21 11 37 20 NE 1019,3 - 0,0
17.09.2019 23:00:00 20,4 15,6 27 15 42 23 NE 1018,8 16 0,0
17.09.2019 22:00:00 20,7 16,3 26 14 40 21 NNE 1018,1 - 0,0
17.09.2019 21:00:00 21,5 16,2 32 17 41 22 NNE 1017,7 - 0,0
17.09.2019 20:00:00 21,3 16,0 23 12 30 16 NNE 1017,3 16 0,0
17.09.2019 19:00:00 22,2 16,0 25 13 33 18 NNE 1017,5 - 0,0
17.09.2019 18:00:00 22,3 15,4 19 10 30 16 N 1017,6 - 0,0
17.09.2019 17:00:00 23,0 16,1 22 12 30 16 NNE 1017,6 - 0,0
17.09.2019 16:00:00 23,5 16,5 24 13 29 16 NNE 1018,1 20 0,0
17.09.2019 15:00:00 24,1 16,9 18 10 24 13 NNE 1018,4 - 0,0
17.09.2019 14:00:00 23,4 16,7 19 10 32 17 NNE 1019,0 - 0,0
17.09.2019 13:00:00 22,4 16,7 23 13 33 18 NNE 1019,5 - 0,0
17.09.2019 12:00:00 21,1 16,5 16 9 28 15 NNE 1019,9 - 0,0
17.09.2019 11:00:00 19,2 15,7 21 11 32 18 NE 1020,0 - 0,0
17.09.2019 10:00:00 18,2 15,1 22 12 31 17 NE 1019,8 - 0,0
17.09.2019 09:00:00 17,4 14,7 17 9 27 15 NE 1019,3 - 0,0
17.09.2019 08:00:00 17,5 14,6 16 9 25 13 NE 1019,0 16 0,0
17.09.2019 07:00:00 17,8 14,5 14 8 25 13 NE 1018,9 - 0,0
17.09.2019 06:00:00 17,9 14,2 16 9 28 15 NNE 1018,8 - 0,0
17.09.2019 05:00:00 18,0 14,3 20 11 29 16 NNE 1018,9 20 0,0
17.09.2019 04:00:00 18,4 14,5 19 11 26 14 NNE 1019,1 - 0,0
17.09.2019 03:00:00 18,9 14,2 18 10 24 13 NNE 1019,3 - 0,0
17.09.2019 02:00:00 19,6 14,2 15 8 23 13 NE 1019,4 20 0,0
17.09.2019 01:00:00 20,3 15,1 18 10 24 13 NNE 1019,4 - 0,0
17.09.2019 00:00:00 20,4 15,4 18 10 22 12 NNE 1019,5 - 0,0
16.09.2019 23:00:00 20,5 15,9 16 9 26 14 N 1019,5 20 0,0
16.09.2019 22:00:00 20,8 16,0 19 10 24 13 N 1019,1 - 0,0
16.09.2019 21:00:00 20,2 16,6 19 11 24 13 N 1018,8 - 0,0
16.09.2019 20:00:00 19,6 16,6 21 11 31 17 NNW 1018,6 14 0,0
16.09.2019 19:00:00 20,1 16,1 22 12 31 17 NW 1018,4 - 0,0
16.09.2019 18:00:00 20,9 16,3 22 12 31 17 NW 1018,6 - 0,0
16.09.2019 17:00:00 21,0 16,4 22 12 31 17 NW 1019,0 - 0,0
16.09.2019 16:00:00 21,3 16,7 19 11 26 14 NW 1019,4 - 0,0
16.09.2019 15:00:00 22,1 17,2 11 6 19 10 WNW 1019,9 - 0,0
16.09.2019 14:00:00 24,5 17,2 4 2 9 5 WNW 1020,3 - 0,0
16.09.2019 13:00:00 24,1 16,6 6 3 16 9 NNE 1020,7 - 0,0
16.09.2019 12:00:00 22,6 16,6 11 6 22 12 ENE 1021,0 - 0,0
16.09.2019 11:00:00 20,9 16,5 14 8 23 12 NE 1021,2 20 0,0
16.09.2019 10:00:00 19,9 15,9 13 7 23 12 NE 1020,7 - 0,0
16.09.2019 09:00:00 18,7 15,6 15 8 22 12 NE 1020,2 - 0,0
16.09.2019 08:00:00 18,3 15,4 11 6 19 11 NE 1019,9 17 0,0
16.09.2019 07:00:00 18,3 15,4 10 6 19 11 NE 1019,8 - 0,0
16.09.2019 06:00:00 18,2 15,4 13 7 19 11 NNE 1019,9 - 0,0
16.09.2019 05:00:00 18,4 15,3 12 7 19 10 NNE 1020,3 - 0,0
16.09.2019 04:00:00 18,8 15,3 11 6 16 8 NNE 1020,5 - 0,0
16.09.2019 03:00:00 19,4 15,7 10 5 17 9 NNE 1020,7 - 0,0
16.09.2019 02:00:00 19,8 15,9 10 5 19 11 NE 1020,7 - 0,0
16.09.2019 01:00:00 20,8 16,0 15 8 23 12 NE 1020,7 - 0,0
16.09.2019 00:00:00 20,4 16,6 16 9 21 11 NNE 1020,8 - 0,0
15.09.2019 23:00:00 20,7 16,9 13 7 20 11 NNE 1020,9 20 0,0
15.09.2019 22:00:00 20,5 17,1 15 8 24 13 N 1020,8 - 0,0
15.09.2019 21:00:00 20,6 16,6 18 10 29 16 NNW 1020,5 - 0,0
15.09.2019 20:00:00 20,7 16,3 23 12 33 18 NNW 1020,1 - 0,0
15.09.2019 19:00:00 21,3 16,7 24 13 31 17 NW 1020,0 - 0,0
15.09.2019 18:00:00 21,4 16,8 16 9 26 14 NW 1020,4 - 0,0
15.09.2019 17:00:00 21,4 17,0 18 10 22 12 NW 1020,9 20 0,0
15.09.2019 16:00:00 23,3 17,5 9 5 16 9 WNW 1021,5 - 0,0
15.09.2019 15:00:00 23,3 17,7 9 5 14 7 NW 1022,2 - 0,0
15.09.2019 14:00:00 24,9 18,3 5 3 11 6 NW 1022,7 - 0,0
15.09.2019 13:00:00 24,9 17,1 6 4 14 8 NE 1023,2 - 0,0
15.09.2019 12:00:00 22,9 17,4 9 5 18 10 ENE 1023,6 - 0,0
15.09.2019 11:00:00 21,3 16,9 11 6 22 12 ENE 1023,8 - 0,0
15.09.2019 10:00:00 20,4 16,8 11 6 18 10 ENE 1023,6 - 0,0
15.09.2019 09:00:00 19,0 16,4 10 6 16 9 NE 1023,3 - 0,0
15.09.2019 08:00:00 18,5 16,1 11 6 19 10 ENE 1023,2 15 0,0
15.09.2019 07:00:00 18,6 16,4 10 5 18 10 ENE 1023,0 - 0,0
15.09.2019 06:00:00 18,7 16,3 10 6 16 9 ENE 1023,1 - 0,0
15.09.2019 05:00:00 19,1 16,3 10 5 19 11 ENE 1023,4 - 0,0
15.09.2019 04:00:00 19,2 16,2 11 6 16 9 ENE 1023,6 - 0,0
15.09.2019 03:00:00 19,1 16,3 11 6 18 10 NE 1024,1 - 0,0
15.09.2019 02:00:00 20,2 16,4 10 5 15 8 NE 1024,3 - 0,0
15.09.2019 01:00:00 21,0 16,8 11 6 16 8 E 1024,2 - 0,0
15.09.2019 00:00:00 21,8 16,7 9 5 16 9 NNE 1024,3 - 0,0
14.09.2019 23:00:00 20,9 17,1 11 6 19 11 ENE 1024,8 20 0,0
14.09.2019 22:00:00 20,8 17,6 11 6 23 12 NE 1024,7 - 0,0
14.09.2019 21:00:00 20,1 17,3 12 6 19 10 N 1024,4 - 0,0
14.09.2019 20:00:00 20,6 16,8 12 7 19 10 NW 1024,1 - 0,0
14.09.2019 19:00:00 22,3 17,4 6 3 15 8 NW 1024,2 - 0,0
14.09.2019 18:00:00 22,2 17,1 11 6 16 8 WNW 1024,2 - 0,0
14.09.2019 17:00:00 23,1 16,9 9 5 13 7 NNW 1024,4 20 0,0
14.09.2019 16:00:00 22,9 16,7 5 3 16 9 NNW 1024,9 - 0,0
14.09.2019 15:00:00 22,2 17,1 8 4 13 7 NNW 1025,3 - 0,0
14.09.2019 14:00:00 23,2 17,2 6 4 14 8 NE 1025,9 - 0,0
14.09.2019 13:00:00 22,7 17,4 9 5 18 10 NE 1026,5 - 0,0
14.09.2019 12:00:00 21,5 16,9 10 6 31 17 ENE 1027,0 - 0,0
14.09.2019 11:00:00 20,5 16,7 14 7 33 18 ENE 1026,7 - 0,0
14.09.2019 10:00:00 18,8 16,0 14 7 31 17 ENE 1026,8 - 0,0
14.09.2019 09:00:00 18,4 15,6 17 9 29 16 ENE 1026,8 - 0,0
14.09.2019 08:00:00 18,3 15,5 17 9 28 15 ENE 1026,6 12 0,0
14.09.2019 07:00:00 18,5 15,6 17 9 27 15 ENE 1026,3 - 0,0
14.09.2019 06:00:00 18,6 15,7 16 8 25 13 ENE 1026,1 - 0,0
14.09.2019 05:00:00 18,6 16,0 17 9 29 15 NE 1026,4 - 0,0

tt = Température de l'air
td = dewpoint
ff = Vitesse du vent
fx = gusts
dd = Direction du vent
ppp = reduced air pressure
vv = visibility
rr = Quantités de précipitations

stations d'obs. à proximité